Temperature
3 4 4 4 5 4 4 4 4 4 4 6 6 5 7 7 7 7 7 7 7 7 7 6 6 6 5 5 5 5 5 5 5 5 4 4 4 4 5 5 5 5 4 4
3 4 3 3 4 4 4 4 4 4 5 6 6 6 6 7 7 7 7 7 7 7 7 6 6 6 5 5 5 5 5 5 5 4 4 4 4 4 4 4 4 4 4 4
3 3 3 4 5 4 4 3 4 5 6 6 5 5 6 7 7 7 8 7 7 7 7 6 6 6 6 5 5 5 5 5 4 4 4 4 4 4 4 4 4 4 4 4
2 3 5 6 6 5 4 4 4 5 5 5 5 7 7 8 8 8 8 8 7 7 7 6 6 6 5 5 5 5 5 4 4 4 4 4 4 4 3 3 3 3 3 3
3 2 3 5 5 5 5 5 5 5 5 5 6 6 7 9 8 8 8 8 7 7 7 6 6 6 5 5 5 5 5 4 4 4 4 4 3 3 3 3 3 3 3 3
2 3 5 7 6 6 6 6 7 5 5 5 5 4 6 9 9 8 8 8 7 7 7 6 6 6 5 5 5 5 4 4 4 4 4 3 3 3 3 3 3 2 2 2
3 3 4 4 5 6 6 8 8 7 7 6 4 6 8 8 8 8 8 7 7 7 7 6 6 5 5 5 5 5 4 4 4 4 3 3 3 3 3 2 2 2 2 2
2 2 4 5 4 5 6 8 8 8 8 7 7 8 8 8 8 7 7 7 7 7 6 6 6 5 5 5 5 4 4 4 4 3 3 3 3 3 2 2 2 2 2 1
3 5 5 6 6 8 7 7 8 8 8 7 7 7 7 7 7 7 7 7 7 6 6 6 6 5 5 5 5 4 4 4 4 3 3 3 3 2 2 2 2 1 1 1
1 3 4 6 7 7 7 7 7 7 7 6 6 7 7 7 7 7 7 6 6 6 6 6 5 5 5 5 4 4 4 4 3 3 3 3 2 2 2 1 1 1 1 1
1 2 4 6 7 8 7 7 7 7 6 6 6 6 6 6 7 6 6 6 6 6 6 6 5 5 5 4 4 4 4 3 3 3 3 2 2 2 1 1 1 0 0 0
4 5 4 6 7 7 6 6 6 6 6 6 6 6 6 6 6 6 6 6 5 5 5 5 5 5 4 4 4 4 3 3 3 3 3 2 2 2 1 1 1 0 0 -0
5 6 5 5 6 5 5 5 5 5 5 5 5 5 5 5 6 5 5 5 5 5 5 5 5 4 4 4 4 4 3 3 3 3 2 2 2 1 1 1 0 0 -0 -0
5 4 4 4 4 4 4 4 4 4 4 4 5 5 5 5 5 5 5 5 5 5 4 4 4 4 4 4 3 3 3 3 3 2 2 2 1 1 1 0 0 0 -0 -1
4 4 3 4 4 4 3 3 3 3 4 4 4 4 4 4 4 5 4 4 4 4 4 4 4 4 4 3 3 3 3 3 2 2 2 1 1 1 0 -0 -0 -0 -1 -1
3 3 3 3 3 3 3 3 3 3 3 4 4 4 4 4 4 4 4 4 4 4 4 4 4 4 3 3 3 3 2 2 2 2 1 1 1 0 -0 -0 -1 -1 -1 -1
2 2 2 2 2 2 2 2 2 3 3 3 3 3 3 3 3 4 4 4 4 4 3 3 3 3 3 3 2 2 2 2 1 1 1 1 0 -0 -0 -1 -1 -1 -1 -2
2 2 2 2 2 2 2 3 3 3 3 3 3 3 3 3 3 3 3 3 3 3 3 3 3 3 3 2 2 2 2 1 1 1 1 0 -0 -0 -1 -1 -1 -1 -2 -2
3 3 3 2 2 2 2 2 3 3 3 3 3 3 3 3 3 3 3 3 3 3 3 3 3 3 2 2 2 2 1 1 1 0 0 -0 -1 -1 -1 -1 -2 -2 -2 -2
3 3 2 2 2 2 2 2 2 2 2 3 3 3 2 3 3 2 2 3 3 3 3 3 3 2 2 2 1 1 1 1 0 -0 -0 -1 -1 -1 -1 -2 -2 -2 -2 -3
2 2 2 2 2 2 2 2 2 2 2 2 2 2 2 2 2 2 2 2 3 2 2 2 2 2 2 1 1 1 0 0 -0 -0 -1 -1 -1 -1 -2 -2 -2 -2 -3 -3
2 2 2 2 2 2 2 2 2 2 2 2 2 2 2 2 2 2 2 2 2 2 2 2 1 1 1 1 1 0 0 -0 -0 -1 -1 -1 -1 -1 -2 -2 -2 -3 -3 -3
2 2 2 1 1 1 1 1 1 1 2 2 2 2 2 2 2 2 2 2 1 1 1 1 1 1 1 1 0 0 -0 -0 -1 -1 -1 -1 -2 -2 -2 -2 -3 -3 -3 -4
1 1 1 1 1 1 1 1 1 1 1 1 1 1 1 1 1 1 1 1 1 1 1 1 0 0 0 -0 -0 -0 -0 -1 -1 -1 -1 -2 -2 -2 -2 -3 -3 -3 -4 -4
1 1 1 0 1 1 1 1 1 1 1 1 1 1 1 1 1 1 1 1 1 0 0 0 -0 -0 -0 -0 -0 -1 -1 -1 -1 -1 -2 -2 -2 -3 -3 -3 -3 -4 -4 -4
0 0 0 0 0 0 0 0 0 0 1 1 1 1 0 0 0 0 0 0 0 0 0 -0 -0 -0 -1 -1 -1 -1 -1 -1 -2 -2 -2 -2 -2 -3 -3 -3 -4 -4 -4 -5
-0 -0 -0 -0 0 0 0 0 -0 0 0 0 0 0 0 0 0 0 -0 -0 -0 -0 -0 -0 -1 -1 -1 -1 -1 -1 -1 -2 -2 -2 -2 -3 -3 -3 -3 -4 -4 -4 -5 -5
Wind_Speed
9 9 7 9 11 9 12 11 10 11 12 18 12 10 10 9 8 8 8 7 7 7 6 5 4 4 3 3 2 1 1 1 2 2 2 2 1 1 1 1 1 1 1 2
6 6 7 11 15 14 15 12 15 16 19 17 10 7 8 9 8 9 10 9 8 7 7 6 6 5 4 4 3 2 2 2 2 1 1 1 1 1 1 2 2 2 2 1
6 6 6 10 11 12 8 9 10 15 16 10 7 9 9 9 9 11 11 10 9 8 8 7 7 5 5 5 3 2 3 2 2 1 1 1 1 1 1 1 1 2 2 1
4 6 7 7 2 7 8 10 12 12 12 10 10 9 9 9 9 10 10 9 8 7 7 6 5 5 4 3 3 3 3 3 2 1 1 1 0 0 1 1 0 1 1 1
2 4 10 9 4 5 6 7 9 13 14 11 7 7 8 7 8 9 9 8 7 7 6 5 5 5 4 4 4 4 4 4 3 3 2 2 1 1 1 0 0 1 1 1
3 4 7 6 1 2 2 6 5 6 9 6 1 4 7 5 5 7 7 6 5 5 4 5 5 5 5 5 5 6 6 5 4 3 3 3 3 2 1 1 0 0 1 1
7 7 10 8 3 2 2 5 3 3 5 4 6 8 7 6 5 5 6 5 5 5 5 6 5 6 6 6 8 7 5 4 4 3 4 3 2 2 1 1 1 0 1 2
6 8 10 5 6 7 8 4 4 4 5 6 9 10 9 8 8 6 5 5 4 5 6 5 6 7 7 8 7 5 5 4 4 4 3 3 3 2 1 2 1 1 1 2
11 11 6 5 8 7 4 6 7 6 7 7 9 10 9 9 8 8 7 6 5 5 6 5 6 7 9 8 5 5 5 5 4 4 3 3 3 3 2 2 1 1 1 2
8 13 13 11 11 11 10 11 11 10 10 9 10 11 11 9 9 8 7 7 5 5 6 7 6 8 9 6 5 6 6 6 5 4 4 3 3 3 3 3 3 3 2 2
11 12 11 11 10 12 11 10 11 11 10 11 12 12 11 10 9 8 7 6 6 7 8 8 7 7 7 6 6 6 6 6 5 5 4 4 3 4 4 4 5 4 4 3
14 12 9 10 8 8 10 12 12 12 12 11 11 13 11 10 9 8 7 6 7 8 8 8 7 7 7 7 7 7 6 6 5 4 4 4 3 2 5 5 6 7 6 4
17 14 12 14 13 11 11 12 12 12 13 13 11 11 11 10 8 7 7 8 9 10 9 8 7 8 7 7 8 9 8 7 5 5 5 5 4 4 3 3 4 5 6 6
15 13 15 15 15 13 12 13 12 12 11 11 11 9 9 8 7 8 9 10 9 8 8 7 8 9 7 7 8 8 8 8 7 6 5 5 5 5 4 3 3 2 4 5
13 12 15 15 14 12 11 10 11 12 11 10 8 8 8 9 9 10 9 7 6 7 8 7 8 9 6 7 8 8 7 6 6 5 5 5 5 4 4 4 4 3 2 2
10 10 11 12 14 13 11 10 11 12 10 9 9 9 9 9 9 9 7 6 6 8 9 8 9 8 6 7 8 7 6 9 7 6 5 5 5 5 5 5 4 4 4 3
9 11 10 11 12 12 11 11 11 12 10 10 10 9 8 7 7 8 8 7 8 9 8 9 9 6 6 8 8 6 5 7 9 6 5 6 5 6 5 5 5 5 4 5
11 12 13 12 12 12 12 10 10 10 10 10 8 7 7 7 9 9 7 6 5 7 8 8 7 6 7 8 7 6 6 5 5 5 5 5 5 5 5 5 5 5 4 4
8 10 10 10 10 10 10 10 9 9 9 7 6 7 8 8 8 7 5 5 6 8 7 6 8 7 7 8 8 5 6 6 5 5 5 6 6 5 5 5 5 5 4 4
7 7 8 8 8 7 8 9 8 8 7 6 6 7 8 8 7 6 6 7 8 7 5 5 6 6 7 7 8 5 6 6 6 5 5 5 5 5 5 6 5 5 5 5
8 8 8 8 8 8 8 7 7 8 7 6 6 7 8 7 6 5 5 7 6 5 5 7 5 5 6 7 8 6 6 6 6 6 6 6 5 5 5 5 5 5 5 5
7 8 9 8 8 9 7 6 6 7 7 6 7 6 6 6 6 5 7 7 6 6 5 4 5 7 8 8 6 6 6 6 6 5 5 6 6 6 6 6 5 5 5 5
8 8 8 8 8 8 8 7 6 6 7 7 7 7 7 6 5 5 6 5 4 6 5 5 7 9 10 7 6 6 6 7 6 6 6 6 6 6 6 6 5 5 5 5
9 8 8 8 6 7 8 9 7 6 6 7 7 7 6 6 5 6 6 6 6 7 5 6 9 10 10 5 5 6 6 6 6 5 5 5 5 5 5 5 5 5 5 5
10 9 8 8 7 8 8 8 7 7 7 6 7 7 6 6 6 5 4 5 6 6 4 6 9 9 7 5 6 6 6 6 6 5 5 5 5 5 5 5 5 5 5 5
10 9 9 9 8 8 7 6 6 6 6 7 6 6 5 4 5 5 4 4 6 6 5 4 4 6 5 5 5 6 5 5 6 5 6 5 5 5 5 5 6 5 5 5
9 8 7 8 8 7 7 7 7 8 7 7 7 6 5 4 4 4 4 4 4 4 4 4 4 4 4 5 5 5 5 5 5 5 5 5 5 5 5 6 5 5 4 5
Wind_Direction
253 261 257 251 247 219 214 216 227 246 251 267 270 267 269 264 262 260 260 255 249 247 244 242 241 247 248 258 264 267 272 286 295 311 327 338 350 351 6 28 27 27 31 9
279 262 259 262 252 235 232 231 240 259 271 268 269 262 264 260 255 256 255 251 247 243 240 237 234 236 235 242 247 233 232 256 278 315 327 328 335 357 28 32 21 21 13 2
282 303 311 271 243 213 211 212 209 236 249 269 281 273 266 259 251 251 252 247 242 237 232 232 229 223 227 232 230 219 226 239 245 245 279 303 330 13 20 11 23 17 356 355
294 339 266 247 209 189 214 240 222 239 258 263 262 274 267 253 247 252 249 245 242 235 232 229 219 215 217 214 210 216 226 233 234 223 238 261 286 327 327 346 11 345 339 341
261 289 281 291 264 191 204 271 229 234 257 268 281 308 289 252 231 239 243 241 236 228 224 217 214 206 193 205 209 214 224 229 227 215 212 209 216 238 257 100 8 338 345 353
208 255 261 260 276 169 129 288 259 221 253 271 263 307 285 281 256 252 251 242 232 220 211 213 215 187 187 206 209 222 225 224 218 208 204 210 213 210 196 172 226 337 347 356
224 244 266 256 237 134 198 259 283 219 242 225 214 235 268 296 283 263 254 244 224 209 212 218 203 182 200 212 222 225 217 210 206 204 205 209 205 194 182 170 127 12 325 331
197 221 253 229 154 189 224 265 273 257 247 240 246 264 274 275 271 264 259 249 224 217 227 220 197 192 210 224 227 213 200 201 207 207 205 195 187 189 169 160 164 241 289 311
204 223 248 208 216 239 247 265 267 264 268 264 265 269 271 269 262 256 248 245 232 225 235 229 209 201 216 229 212 197 196 205 209 204 202 190 184 186 172 168 186 234 239 265
250 260 261 260 258 263 257 254 261 263 268 266 264 268 270 269 264 257 249 242 234 224 232 238 224 218 223 223 199 194 203 209 203 198 201 198 194 189 186 194 205 220 231 247
255 269 285 271 252 257 264 265 267 267 261 257 262 268 264 264 260 254 249 241 228 227 234 239 231 229 226 213 194 200 208 210 204 200 198 200 203 206 207 214 208 212 218 217
252 249 245 265 267 271 272 273 271 274 275 268 257 261 263 262 257 249 246 241 236 235 237 239 230 232 227 210 197 200 210 211 207 203 201 200 203 228 231 224 232 233 228 223
253 266 263 270 276 271 270 273 273 268 267 272 267 256 256 259 255 245 243 239 237 237 237 235 230 232 227 210 201 203 209 207 201 199 199 199 200 207 230 242 237 239 237 235
255 264 272 271 272 275 273 274 275 273 269 264 265 261 255 256 255 245 244 242 240 239 237 231 231 236 226 206 202 207 208 207 201 200 199 200 202 205 205 210 228 250 247 236
257 250 258 272 279 281 280 282 283 280 278 275 266 259 253 251 253 253 250 244 236 235 235 231 236 241 219 201 202 205 203 204 200 197 198 199 198 198 203 209 217 222 228 237
272 268 265 269 273 277 280 278 275 277 277 275 271 262 256 253 257 259 253 232 224 233 234 230 235 236 208 198 201 204 207 207 197 194 194 196 196 199 205 210 213 216 221 219
272 279 279 281 281 281 275 269 268 272 274 270 267 265 262 260 261 259 254 237 231 238 236 229 233 224 203 197 197 201 202 205 199 195 197 198 199 203 206 208 213 219 223 218
252 260 266 270 277 283 284 279 274 273 270 269 271 266 258 253 255 257 254 246 244 251 243 231 223 208 202 197 195 194 193 195 195 199 199 200 202 201 202 208 213 217 220 222
273 272 276 275 273 274 275 277 277 275 275 274 271 267 262 256 254 256 249 237 240 251 247 224 211 201 201 199 190 188 187 190 195 198 198 206 207 200 202 206 210 210 209 208
296 294 292 289 284 273 276 280 280 280 278 270 269 270 271 265 255 247 240 242 241 239 233 218 208 205 202 197 186 184 186 192 197 198 197 200 202 203 204 206 206 205 206 208
303 301 298 295 292 286 278 278 278 279 281 271 260 261 267 269 253 236 239 258 258 232 224 218 206 203 196 189 185 182 186 192 197 200 201 203 203 204 205 205 205 207 207 208
297 296 294 293 292 293 290 282 274 275 280 277 270 264 265 268 258 247 241 244 253 232 217 212 208 205 197 187 183 185 190 194 198 199 201 201 202 205 206 204 206 209 205 203
287 285 286 285 283 286 292 289 278 272 272 272 270 265 260 258 248 244 265 249 235 230 218 214 210 206 200 189 185 189 193 197 198 200 203 203 203 203 203 203 204 202 200 201
283 284 282 280 281 284 288 287 282 275 269 270 266 259 256 264 263 243 243 250 242 235 226 221 214 209 198 189 187 191 195 198 199 199 199 197 197 198 199 199 200 199 199 199
275 275 277 278 278 277 275 279 285 282 276 275 272 263 251 242 248 256 243 238 236 233 232 225 217 207 195 189 191 194 195 197 196 191 192 193 195 196 197 197 197 197 198 201
269 270 270 264 263 267 268 269 271 272 271 276 278 270 260 250 243 245 243 240 236 230 225 220 209 202 195 193 194 193 192 195 199 197 194 194 194 195 196 197 197 198 199 200
267 266 268 272 268 256 251 252 259 264 261 261 271 272 262 253 244 238 235 234 231 226 220 211 202 199 195 193 192 190 189 188 187 187 188 189 190 193 194 194 196 196 194 195
Height
1517 1513 1513 1510 1507 1508 1509 1507 1506 1494 1489 1473 1471 1471 1469 1467 1466 1465 1464 1464 1463 1462 1462 1461 1461 1460 1459 1458 1457 1455 1454 1453 1452 1451 1450 1449 1448 1447 1446 1445 1445 1444 1444 1444
1515 1509 1509 1505 1498 1499 1499 1498 1494 1489 1481 1467 1467 1467 1465 1463 1462 1461 1460 1459 1459 1459 1458 1458 1457 1457 1456 1455 1454 1453 1452 1451 1450 1450 1449 1448 1447 1446 1445 1444 1443 1443 1442 1442
1515 1511 1505 1497 1484 1486 1487 1484 1484 1482 1471 1465 1466 1463 1461 1459 1458 1456 1455 1455 1454 1454 1454 1454 1454 1454 1453 1453 1452 1451 1450 1449 1449 1448 1447 1446 1445 1444 1443 1442 1442 1441 1441 1440
1517 1513 1501 1480 1475 1475 1477 1475 1474 1470 1464 1463 1461 1459 1457 1455 1454 1452 1452 1451 1451 1451 1451 1451 1451 1451 1450 1450 1449 1448 1448 1447 1447 1446 1445 1444 1444 1443 1442 1441 1440 1440 1439 1439
1517 1516 1500 1479 1473 1473 1475 1470 1464 1464 1461 1459 1458 1456 1452 1450 1449 1449 1448 1448 1447 1447 1447 1447 1447 1447 1447 1447 1446 1445 1445 1444 1444 1444 1443 1442 1442 1441 1440 1440 1439 1438 1437 1437
1515 1511 1495 1474 1470 1469 1472 1468 1459 1458 1457 1457 1457 1459 1451 1447 1446 1445 1445 1444 1444 1443 1443 1443 1443 1443 1443 1443 1443 1442 1442 1442 1442 1441 1441 1440 1440 1439 1439 1438 1437 1436 1436 1435
1510 1507 1489 1472 1468 1470 1474 1464 1457 1455 1454 1454 1454 1452 1448 1446 1444 1443 1441 1440 1440 1439 1439 1440 1440 1440 1439 1439 1439 1439 1439 1439 1439 1438 1438 1437 1437 1437 1436 1436 1435 1434 1434 1433
1504 1503 1486 1464 1466 1467 1462 1456 1454 1453 1452 1450 1448 1446 1444 1442 1441 1439 1438 1437 1436 1436 1435 1436 1436 1436 1435 1435 1435 1436 1435 1435 1435 1435 1435 1434 1434 1434 1433 1433 1432 1432 1431 1430
1487 1476 1463 1460 1458 1456 1455 1453 1451 1450 1449 1447 1444 1442 1440 1438 1436 1435 1434 1433 1432 1432 1431 1431 1431 1431 1430 1431 1432 1432 1431 1431 1432 1432 1431 1431 1431 1430 1430 1430 1430 1429 1429 1428
1478 1464 1457 1455 1454 1453 1452 1449 1447 1446 1444 1442 1439 1436 1435 1433 1431 1430 1429 1428 1428 1427 1426 1426 1426 1426 1426 1427 1427 1427 1427 1427 1427 1428 1428 1428 1427 1427 1427 1427 1426 1426 1426 1425
1470 1458 1454 1448 1447 1446 1445 1444 1442 1440 1438 1436 1433 1430 1429 1427 1425 1424 1424 1423 1422 1422 1421 1421 1421 1421 1421 1422 1422 1422 1422 1423 1423 1423 1424 1424 1424 1424 1424 1424 1424 1424 1423 1423
1456 1449 1449 1443 1442 1442 1440 1437 1435 1433 1429 1428 1427 1424 1422 1421 1420 1419 1418 1417 1416 1416 1415 1415 1415 1415 1416 1416 1416 1417 1417 1418 1418 1419 1419 1419 1420 1420 1420 1420 1420 1420 1420 1420
1445 1442 1441 1437 1435 1434 1432 1430 1428 1425 1423 1420 1419 1417 1416 1414 1413 1412 1411 1411 1410 1410 1410 1409 1409 1410 1410 1410 1411 1411 1411 1412 1413 1414 1414 1415 1415 1415 1416 1416 1417 1416 1416 1416
1438 1437 1433 1429 1428 1426 1424 1422 1420 1417 1415 1413 1411 1410 1409 1407 1406 1405 1405 1404 1404 1403 1403 1403 1403 1403 1404 1404 1405 1405 1406 1407 1408 1408 1409 1410 1410 1411 1411 1411 1412 1412 1412 1411
1430 1429 1426 1422 1420 1418 1417 1414 1412 1409 1407 1405 1404 1403 1401 1400 1399 1399 1399 1398 1397 1397 1397 1397 1397 1397 1398 1398 1398 1399 1400 1401 1402 1403 1404 1405 1405 1405 1406 1406 1407 1407 1407 1407
1423 1421 1418 1416 1413 1411 1409 1407 1405 1402 1400 1398 1397 1396 1395 1394 1393 1392 1392 1391 1390 1390 1390 1390 1390 1391 1392 1392 1393 1394 1395 1396 1397 1398 1398 1399 1400 1400 1401 1401 1402 1402 1402 1403
1417 1413 1411 1408 1406 1404 1402 1400 1398 1396 1394 1392 1391 1390 1389 1387 1386 1386 1385 1385 1385 1384 1384 1385 1385 1386 1386 1386 1387 1388 1389 1390 1391 1392 1393 1393 1394 1395 1396 1396 1397 1397 1398 1398
1410 1408 1406 1404 1401 1398 1396 1394 1392 1390 1388 1387 1385 1384 1382 1382 1380 1380 1380 1379 1379 1378 1378 1379 1380 1380 1380 1381 1382 1383 1384 1385 1386 1387 1387 1388 1389 1390 1391 1391 1392 1393 1393 1394
1405 1403 1400 1398 1396 1394 1392 1389 1387 1385 1383 1382 1380 1378 1377 1376 1376 1375 1374 1373 1373 1372 1373 1374 1374 1375 1375 1376 1377 1377 1378 1379 1380 1381 1382 1383 1384 1385 1386 1386 1387 1388 1388 1389
1401 1399 1396 1394 1392 1390 1387 1385 1383 1381 1379 1377 1375 1373 1372 1371 1371 1370 1369 1368 1367 1368 1369 1369 1369 1370 1370 1371 1372 1372 1373 1374 1375 1376 1377 1378 1379 1380 1381 1382 1382 1383 1384 1384
1398 1395 1393 1390 1388 1385 1383 1381 1379 1376 1375 1373 1371 1369 1368 1366 1366 1365 1363 1362 1363 1363 1363 1363 1364 1364 1365 1366 1366 1367 1368 1369 1370 1371 1372 1373 1374 1375 1376 1377 1377 1378 1379 1379
1394 1392 1389 1387 1384 1381 1379 1377 1375 1373 1370 1369 1367 1365 1363 1362 1360 1359 1358 1358 1358 1358 1357 1358 1358 1359 1360 1360 1361 1362 1363 1364 1365 1366 1367 1368 1369 1370 1371 1372 1373 1374 1374 1375
1390 1388 1385 1383 1380 1377 1375 1373 1371 1368 1366 1364 1362 1361 1359 1357 1356 1355 1353 1353 1353 1353 1352 1352 1353 1354 1355 1355 1356 1357 1358 1359 1360 1361 1362 1364 1365 1365 1366 1367 1368 1369 1370 1370
1385 1383 1380 1378 1376 1373 1370 1368 1366 1364 1362 1360 1358 1357 1355 1353 1351 1350 1349 1348 1348 1348 1347 1348 1348 1349 1349 1350 1351 1352 1353 1354 1355 1357 1358 1359 1360 1361 1362 1362 1363 1364 1365 1366
1379 1376 1374 1372 1369 1367 1365 1363 1360 1358 1357 1355 1353 1351 1350 1348 1346 1345 1344 1344 1343 1343 1342 1343 1343 1344 1344 1345 1346 1347 1348 1349 1351 1352 1353 1354 1355 1356 1357 1358 1359 1359 1360 1361
1371 1369 1367 1365 1363 1361 1359 1357 1354 1352 1351 1349 1347 1345 1344 1343 1341 1340 1339 1339 1339 1338 1338 1338 1338 1339 1339 1340 1341 1342 1344 1345 1346 1347 1348 1349 1350 1351 1352 1353 1354 1355 1356 1357
1363 1361 1359 1357 1355 1353 1352 1350 1348 1346 1344 1343 1341 1339 1338 1337 1336 1335 1334 1334 1334 1334 1334 1334 1334 1334 1335 1336 1337 1338 1339 1340 1341 1342 1344 1345 1346 1347 1348 1349 1350 1350 1351 1352